SARSAT 13 (METOP-B)

Last updated on Tue Sep 22 2026 00:03:02 GMT+0000 (Coordinated Universal Time)

1 38771U 12049A 26264.55418338 .00000040 00000+0 37860-4 0 9990 2 38771 98.6406 314.0846 0003363 77.3815 282.7739 14.21460205726955
UTC large
Height (km)
Speed (km/s)
/
Latitude / Longitude
Inclination (degrees)
Orbital Period (minutes)
Azimuth
Elevation
Range (km)
Doppler Factor

Next 0 passes for location: London (51.5072 / 0.1276)

No passes found over London.
SARSAT 13 (METOP-B)